Regional Weather Roundup
Issued by NWS Cleveland, OH

Home | Current Version | Previous Version | Graphics & Text | Print | Product List | Glossary On
Versions: 1 2 3 4 5 6 7 8 9 10 11 12 13 14 15 16 17 18 19 20 21 22 23 24 25 26 27 28 29 30 31 32 33 34 35 36 37 38 39 40 41 42 43 44 45 46 47 48 49 50
000
ASUS41 KCLE 020300
RWRCLE
OHIO REGIONAL WEATHER ROUNDUP
NATIONAL WEATHER SERVICE WILMINGTON, OH
1100 PM EDT WED OCT 01 2014

NOTE: "FAIR" INDICATES FEW OR NO CLOUDS BELOW 12,000 FEET WITH NO
SIGNIFICANT WEATHER AND/OR OBSTRUCTIONS TO VISIBILITY.

OHZ001>008-015>018-024>027-034-035-043-044-020400-
   NORTHWEST OHIO

CITY           SKY/WX    TMP DP  RH WIND       PRES   REMARKS
DEFIANCE       CLEAR     52  48  86 CALM      30.03R
FINDLAY        CLEAR     56  52  86 SE5       30.02S
TOLEDO EXPRESS CLEAR     52  52 100 CALM      30.03S FOG
TOLEDO METCALF CLEAR     54  52  93 CALM      30.04S
LIMA           CLEAR     54  48  80 SE5       30.03R
$$

OHZ009>014-019>023-028>033-038-089-020400-
   NORTHEAST OHIO

CITY           SKY/WX    TMP DP  RH WIND       PRES   REMARKS
CLE-HOPKINS    PTCLDY    56  55  97 CALM      30.06S FOG
CLE-LAKEFRONT  CLEAR     61  57  87 SE7       30.03S
CUY CO. ARPT   PTCLDY    59  59 100 SE6       30.05S
LORAIN-ELYRIA  CLOUDY    59  56  89 SW5       30.06R FOG
ASHTABULA      FOG       53  53 100 CALM      30.07R VSB<1/4
AKRON-CANTON   CLEAR     55  51  86 CALM      30.06R
WOOSTER        NOT AVBL
MANSFIELD      CLEAR     53  53 100 SE3       30.05S FOG
YOUNGSTOWN     PTCLDY    52  51  97 SW3       30.06R FOG
$$

OHZ042-051>053-060>062-070>072-077>081-020400-
  SOUTHWEST OHIO

CITY           SKY/WX    TMP DP  RH WIND       PRES   REMARKS
CINC-COVINGTON CLEAR     63  50  62 E5        30.01S
CINC-LUNKEN    CLEAR     56  54  93 CALM      30.03R
HAMILTON       CLEAR     52  50  93 CALM      30.03R
DAYTON         NOT AVBL
WRIGHT-PAT AFB CLEAR     54  50  88 CALM      30.03R
DAYTON GENERAL CLEAR     57  49  74 E8        30.02R
WILMINGTON     CLEAR     57  44  62 E5        30.03S
$$

OHZ036-037-039>041-045>050-054>059-063>069-073>076-082>088-020400-
  CENTRAL AND SOUTHEAST OHIO

CITY           SKY/WX    TMP DP  RH WIND       PRES   REMARKS
COLUMBUS       CLEAR     56  51  84 CALM      30.04S
OSU AIRPORT    CLEAR     54  51  90 E5        30.04S
BOLTON FIELD   NOT AVBL
RICKENBACK AFB NOT AVBL
NEWARK         FOG       46  44  93 CALM      30.05S VSB 1/4
MARION         CLEAR     52  50  93 SE5       30.04F FOG
LANCASTER      CLEAR     48  46  93 CALM      30.05S FOG
ZANESVILLE     CLEAR     52  49  89 CALM      30.05S FOG
NEW PHILLY     MOCLDY    51  50  96 CALM      30.06F FOG
$$



USA.gov is the U.S. government's official web portal to all federal, state and local government web resources and services.